• Join FlightAware (Why Join?)
  • Login
  • US Flag 
10:02PM EST


 

Airport Tracker/Info


-or-


 

Live Flight TrackerFlight Track Log ✈ CTL13 ✈ 25-Apr-2013 ✈ KMDW - KGRR

Flight Track Log - Related Links

Times and Time Zones

All times are in EDT time to prevent confusion due to time zone crossing. See the CTL13 flight status page for this flight to view local times or setup timezone preferences in your user account.

Time Position Orientation Groundspeed Altitude Reporting Facility
EDT Latitude Longitude Course Direction KTS MPH feet Rate Location/Type
10:56PM 41.8000 -87.7333 93° East 138 159 2,500  Level Chicago TRACON
10:57PM 41.7833 -87.6667 109° East 150 173 3,700 1,095 Climbing Chicago TRACON
10:58PM 41.7833 -87.6167 90° East 150 173 4,800 729 Climbing Chicago TRACON
10:59PM 41.7686 -87.5817 119° Southeast 147 169 5,000 111 Climbing Chicago Center
11:00PM 41.7758 -87.5147 82° East 171 197 5,000  Level Chicago Center
11:01PM 41.7820 -87.4459 93° East  Level FlightAware Approximate
11:01PM 41.7967 -87.4472 67° East 189 217 5,000  Level Chicago Center
11:02PM 41.8161 -87.3789 69° East 195 224 5,100 537 Climbing Chicago Center
11:03PM 41.8364 -87.3206 65° Northeast 177 204 6,100 878 Climbing Chicago Center
11:04PM 41.8539 -87.2617 68° East 172 198 6,900 492 Climbing Chicago Center
11:05PM 41.8786 -87.1881 66° East 183 211 7,100 49 Climbing Chicago Center
11:06PM 41.9006 -87.1292 63° Northeast 178 205 7,000  Descending Chicago Center
11:07PM 41.9231 -87.0750 61° Northeast 168 193 7,100  Climbing Chicago Center
11:08PM 41.9408 -87.0208 66° East 161 185 7,000 -49 Descending Chicago Center
11:09PM 41.9628 -86.9697 60° Northeast 160 184 7,000  Level Chicago Center
11:10PM 41.9925 -86.9264 47° Northeast 157 181 7,000  Level Chicago Center
11:11PM 42.0222 -86.8814 48° Northeast 163 188 7,000  Level Chicago Center
11:12PM 42.0508 -86.8383 48° Northeast 160 184 7,000  Level Chicago Center
11:13PM 42.0803 -86.7953 47° Northeast 158 182 7,000  Level Chicago Center
11:14PM 42.1158 -86.7403 49° Northeast 165 190 7,000  Level Chicago Center
11:15PM 42.1436 -86.6947 51° Northeast 160 184 7,000 49 Level Chicago Center
11:16PM 42.1714 -86.6489 51° Northeast 159 183 7,100  Climbing Chicago Center
11:17PM 42.2003 -86.6022 50° Northeast 161 185 7,000 -49 Descending Chicago Center
11:18PM 42.2306 -86.5558 49° Northeast 164 189 7,000 49 Level Chicago Center
11:19PM 42.2589 -86.5111 49° Northeast 159 183 7,100 49 Climbing Chicago Center
11:20PM 42.2875 -86.4631 51° Northeast 162 186 7,100  Level Chicago Center
11:21PM 42.3208 -86.4100 50° Northeast 163 188 7,100  Level Chicago Center
11:22PM 42.3492 -86.3661 49° Northeast 159 183 7,100  Level Chicago Center
11:23PM 42.3778 -86.3203 50° Northeast 159 183 7,100  Level Chicago Center
11:24PM 42.4075 -86.2736 49° Northeast 162 186 7,100  Level Chicago Center
11:25PM 42.4369 -86.2286 48° Northeast 161 185 7,100 -49 Level Chicago Center
11:26PM 42.4667 -86.1831 48° Northeast 161 185 7,000  Descending Chicago Center
11:27PM 42.4936 -86.1336 54° Northeast 162 186 7,100 49 Climbing Chicago Center
11:28PM 42.5186 -86.0831 56° Northeast 162 186 7,100  Level Chicago Center
11:29PM 42.5419 -86.0306 59° Northeast 163 188 7,100 -197 Level Chicago Center
11:30PM 42.5686 -85.9650 61° Northeast 165 190 6,700 -443 Descending Chicago Center
11:31PM 42.5911 -85.9069 62° Northeast 171 197 6,200 -492 Descending Chicago Center
11:32PM 42.6150 -85.8492 61° Northeast 175 201 5,700 -537 Descending Chicago Center
11:33PM 42.6411 -85.7936 57° Northeast 175 201 5,100 -585 Descending Chicago Center
11:34PM 42.6694 -85.7397 54° Northeast 177 204 4,500 -492 Descending Chicago Center
11:35PM 42.7014 -85.6878 50° Northeast 178 205 4,100 -246 Descending Chicago Center
11:36PM 42.7269 -85.6333 57° Northeast 174 200 4,000 -49 Descending Chicago Center
11:37PM 42.7478 -85.5744 64° Northeast 173 199 4,000 -246 Level Chicago Center
11:38PM 42.7753 -85.5194 56° Northeast 175 201 3,500 -541 Descending Chicago Center
11:39PM 42.7964 -85.4417 70° East 182 209 2,900 -492 Descending Chicago Center
11:40PM 42.8275 -85.4039 42° Northeast 179 206 2,500 -393 Descending Chicago Center
11:41PM 42.8717 -85.4069 357° North 167 192 2,100 -443 Descending Chicago Center
11:42PM 42.8872 -85.4514 296° West 150 173 1,600 -492 Descending Chicago Center
11:44PM 42.8825 -85.4917 261° West 126 145 1,100 -344 Descending Chicago Center
11:45PM 42.8789 -85.5317 263° West 122 140 900 -197 Descending Chicago Center